User: anonymous   Login
Location: Caltech
(34.1382°N, 118.1253°W)
Time: 10:02:08
(UTC-08:00)
Language:

SL-16 R/B - Orbit

View from above orbital plane
View from above orbital plane
View from above satellite
View from above satellite

Ground track
Ground track

The orbit data is extracted from the following two-line orbital elements,

1 28353U 04021B   17057.16872577  .00000299  00000-0  18192-3 0  9995
2 28353  71.0015 311.2900 0005024 345.2284  14.8691 14.14189094656469
Epoch (UTC): 26 February 2017 04:02:57
Eccentricity: 0.0005024
inclination: 71.0015°
perigee height: 841 km
apogee height: 849 km
right ascension of ascending node: 311.2900°
argument of perigee: 345.2284°
revolutions per day: 14.14189094
mean anomaly at epoch: 14.8691°
orbit number at epoch: 65646

The dashed part of the orbit path shows where the satellite is in the earth's shadow,  

DLR